Year,Month,Day,Hour,Minute,Value (Times are PST for temperature in C)
2018,02,19,00,00,-6.70
2018,02,19,00,01,-6.70
2018,02,19,00,02,-6.70
2018,02,19,00,03,-6.80
2018,02,19,00,04,-6.80
2018,02,19,00,05,-6.80
2018,02,19,00,06,-6.80
2018,02,19,00,07,-6.80
2018,02,19,00,08,-6.80
2018,02,19,00,09,-6.80
2018,02,19,00,10,-6.80
2018,02,19,00,11,-6.80
2018,02,19,00,12,-6.90
2018,02,19,00,13,-6.90
2018,02,19,00,14,-6.90
2018,02,19,00,15,-6.90
2018,02,19,00,16,-6.90
2018,02,19,00,17,-6.90
2018,02,19,00,18,-6.90
2018,02,19,00,19,-6.90
2018,02,19,00,20,-6.90
2018,02,19,00,21,-6.90
2018,02,19,00,22,-7.00
2018,02,19,00,23,-7.00
2018,02,19,00,24,-7.00
2018,02,19,00,25,-7.00
2018,02,19,00,26,-7.10
2018,02,19,00,27,-7.10
2018,02,19,00,28,-7.10
2018,02,19,00,29,-7.00
2018,02,19,00,30,-7.00
2018,02,19,00,31,-7.00
2018,02,19,00,32,-6.90
2018,02,19,00,33,-6.90
2018,02,19,00,34,-6.90
2018,02,19,00,35,-6.90
2018,02,19,00,36,-6.90
2018,02,19,00,37,-6.90
2018,02,19,00,38,-6.90
2018,02,19,00,39,-6.90
2018,02,19,00,40,-6.90
2018,02,19,00,41,-6.90
2018,02,19,00,42,-6.80
2018,02,19,00,43,-6.80
2018,02,19,00,44,-6.70
2018,02,19,00,45,-6.60
2018,02,19,00,46,-6.60
2018,02,19,00,47,-6.60
2018,02,19,00,48,-6.60
2018,02,19,00,49,-6.70
2018,02,19,00,50,-6.60
2018,02,19,00,51,-6.60
2018,02,19,00,52,-6.60
2018,02,19,00,53,-6.50
2018,02,19,00,54,-6.40
2018,02,19,00,55,-6.40
2018,02,19,00,56,-6.30
2018,02,19,00,57,-6.30
2018,02,19,00,58,-6.30
2018,02,19,00,59,-6.30
2018,02,19,01,00,-6.30
2018,02,19,01,01,-6.30
2018,02,19,01,02,-6.40
2018,02,19,01,03,-6.40
2018,02,19,01,04,-6.40
2018,02,19,01,05,-6.40
2018,02,19,01,06,-6.40
2018,02,19,01,07,-6.40
2018,02,19,01,08,-6.40
2018,02,19,01,09,-6.30
2018,02,19,01,10,-6.30
2018,02,19,01,11,-6.30
2018,02,19,01,12,-6.30
2018,02,19,01,13,-6.30
2018,02,19,01,14,-6.30
2018,02,19,01,15,-6.30
2018,02,19,01,16,-6.30
2018,02,19,01,17,-6.30
2018,02,19,01,18,-6.30
2018,02,19,01,19,-6.30
2018,02,19,01,20,-6.30
2018,02,19,01,21,-6.30
2018,02,19,01,22,-6.30
2018,02,19,01,23,-6.30
2018,02,19,01,24,-6.30
2018,02,19,01,25,-6.30
2018,02,19,01,26,-6.30
2018,02,19,01,27,-6.40
2018,02,19,01,28,-6.40
2018,02,19,01,29,-6.40
2018,02,19,01,30,-6.40
2018,02,19,01,31,-6.40
2018,02,19,01,32,-6.40
2018,02,19,01,33,-6.50
2018,02,19,01,34,-6.40
2018,02,19,01,35,-6.40
2018,02,19,01,36,-6.40
2018,02,19,01,37,-6.40
2018,02,19,01,38,-6.40
2018,02,19,01,39,-6.40
2018,02,19,01,40,-6.40
2018,02,19,01,41,-6.40
2018,02,19,01,42,-6.30
2018,02,19,01,43,-6.30
2018,02,19,01,44,-6.30
2018,02,19,01,45,-6.30
2018,02,19,01,46,-6.30
2018,02,19,01,47,-6.30
2018,02,19,01,48,-6.30
2018,02,19,01,49,-6.30
2018,02,19,01,50,-6.30
2018,02,19,01,51,-6.30
2018,02,19,01,52,-6.30
2018,02,19,01,53,-6.30
2018,02,19,01,54,-6.30
2018,02,19,01,55,-6.40
2018,02,19,01,56,-6.40
2018,02,19,01,57,-6.40
2018,02,19,01,58,-6.30
2018,02,19,01,59,-6.30
2018,02,19,02,00,-6.30
2018,02,19,02,01,-6.30
2018,02,19,02,02,-6.20
2018,02,19,02,03,-6.20
2018,02,19,02,04,-6.20
2018,02,19,02,05,-6.20
2018,02,19,02,06,-6.20
2018,02,19,02,07,-6.10
2018,02,19,02,08,-6.10
2018,02,19,02,09,-6.10
2018,02,19,02,10,-6.10
2018,02,19,02,11,-6.10
2018,02,19,02,12,-6.10
2018,02,19,02,13,-6.10
2018,02,19,02,14,-6.10
2018,02,19,02,15,-6.00
2018,02,19,02,16,-6.00
2018,02,19,02,17,-6.00
2018,02,19,02,18,-6.00
2018,02,19,02,19,-6.00
2018,02,19,02,20,-6.00
2018,02,19,02,21,-5.90
2018,02,19,02,22,-5.90
2018,02,19,02,23,-5.80
2018,02,19,02,24,-5.80
2018,02,19,02,25,-5.70
2018,02,19,02,26,-5.70
2018,02,19,02,27,-5.60
2018,02,19,02,28,-5.60
2018,02,19,02,29,-5.50
2018,02,19,02,30,-5.40
2018,02,19,02,31,-5.30
2018,02,19,02,32,-5.20
2018,02,19,02,33,-5.20
2018,02,19,02,34,-5.20
2018,02,19,02,35,-5.20
2018,02,19,02,36,-5.20
2018,02,19,02,37,-5.20
2018,02,19,02,38,-5.20
2018,02,19,02,39,-5.20
2018,02,19,02,40,-5.20
2018,02,19,02,41,-5.20
2018,02,19,02,42,-5.30
2018,02,19,02,43,-5.30
2018,02,19,02,44,-5.40
2018,02,19,02,45,-5.40
2018,02,19,02,46,-5.40
2018,02,19,02,47,-5.40
2018,02,19,02,48,-5.40
2018,02,19,02,49,-5.30
2018,02,19,02,50,-5.30
2018,02,19,02,51,-5.20
2018,02,19,02,52,-5.20
2018,02,19,02,53,-5.20
2018,02,19,02,54,-5.20
2018,02,19,02,55,-5.20
2018,02,19,02,56,-5.20
2018,02,19,02,57,-5.20
2018,02,19,02,58,-5.20
2018,02,19,02,59,-5.20
2018,02,19,03,00,-5.20
2018,02,19,03,01,-5.20
2018,02,19,03,02,-5.20
2018,02,19,03,06,-5.10
2018,02,19,03,07,-5.10
2018,02,19,03,08,-5.20
2018,02,19,03,09,-5.20
2018,02,19,03,10,-5.20
2018,02,19,03,11,-5.30
2018,02,19,03,12,-5.30
2018,02,19,03,13,-5.20
2018,02,19,03,14,-5.20
2018,02,19,03,15,-5.10
2018,02,19,03,16,-5.10
2018,02,19,03,17,-5.10
2018,02,19,03,18,-5.00
2018,02,19,03,19,-5.00
2018,02,19,03,20,-5.10
2018,02,19,03,21,-5.10
2018,02,19,03,22,-5.10
2018,02,19,03,23,-5.10
2018,02,19,03,24,-5.10
2018,02,19,03,25,-5.10
2018,02,19,03,26,-5.10
2018,02,19,03,27,-5.10
2018,02,19,03,28,-5.10
2018,02,19,03,29,-5.20
2018,02,19,03,30,-5.10
2018,02,19,03,31,-5.10
2018,02,19,03,32,-5.10
2018,02,19,03,33,-5.10
2018,02,19,03,34,-5.10
2018,02,19,03,35,-5.10
2018,02,19,03,36,-5.10
2018,02,19,03,37,-5.10
2018,02,19,03,38,-5.10
2018,02,19,03,39,-5.20
2018,02,19,03,40,-5.20
2018,02,19,03,41,-5.20
2018,02,19,03,42,-5.20
2018,02,19,03,43,-5.30
2018,02,19,03,44,-5.20
2018,02,19,03,45,-5.20
2018,02,19,03,46,-5.20
2018,02,19,03,47,-5.20
2018,02,19,03,48,-5.10
2018,02,19,03,49,-5.10
2018,02,19,03,50,-5.10
2018,02,19,03,51,-5.00
2018,02,19,03,52,-4.90
2018,02,19,03,53,-4.90
2018,02,19,03,54,-4.80
2018,02,19,03,55,-4.80
2018,02,19,03,56,-4.80
2018,02,19,03,57,-4.80
2018,02,19,03,58,-4.80
2018,02,19,03,59,-4.90
2018,02,19,04,00,-5.00
2018,02,19,04,01,-5.00
2018,02,19,04,02,-5.10
2018,02,19,04,03,-5.00
2018,02,19,04,04,-5.00
2018,02,19,04,05,-5.00
2018,02,19,04,06,-5.00
2018,02,19,04,07,-5.00
2018,02,19,04,08,-5.00
2018,02,19,04,09,-5.10
2018,02,19,04,10,-5.10
2018,02,19,04,11,-5.10
2018,02,19,04,12,-5.00
2018,02,19,04,13,-5.00
2018,02,19,04,14,-4.90
2018,02,19,04,15,-4.90
2018,02,19,04,16,-4.90
2018,02,19,04,17,-4.90
2018,02,19,04,18,-4.90
2018,02,19,04,19,-4.90
2018,02,19,04,20,-4.90
2018,02,19,04,21,-4.90
2018,02,19,04,22,-4.90
2018,02,19,04,23,-4.90
2018,02,19,04,24,-4.90
2018,02,19,04,25,-4.90
2018,02,19,04,26,-5.00
2018,02,19,04,27,-5.00
2018,02,19,04,28,-5.10
2018,02,19,04,29,-5.10
2018,02,19,04,30,-5.10
2018,02,19,04,31,-5.10
2018,02,19,04,32,-5.10
2018,02,19,04,33,-5.10
2018,02,19,04,34,-5.10
2018,02,19,04,35,-5.10
2018,02,19,04,36,-5.10
2018,02,19,04,37,-5.10
2018,02,19,04,38,-5.10
2018,02,19,04,39,-5.10
2018,02,19,04,40,-5.00
2018,02,19,04,41,-5.00
2018,02,19,04,42,-4.90
2018,02,19,04,43,-4.90
2018,02,19,04,44,-4.90
2018,02,19,04,45,-4.90
2018,02,19,04,46,-5.00
2018,02,19,04,47,-5.00
2018,02,19,04,48,-5.00
2018,02,19,04,49,-5.00
2018,02,19,04,50,-5.00
2018,02,19,04,51,-4.90
2018,02,19,04,52,-4.90
2018,02,19,04,53,-4.90
2018,02,19,04,54,-4.90
2018,02,19,04,55,-4.90
2018,02,19,04,56,-4.90
2018,02,19,04,57,-4.90
2018,02,19,04,58,-4.90
2018,02,19,04,59,-4.90
2018,02,19,05,00,-4.90
2018,02,19,05,01,-4.90
2018,02,19,05,02,-4.90
2018,02,19,05,03,-4.90
2018,02,19,05,04,-5.00
2018,02,19,05,05,-5.00
2018,02,19,05,06,-4.90
2018,02,19,05,07,-4.90
2018,02,19,05,08,-4.90
2018,02,19,05,09,-4.90
2018,02,19,05,10,-4.90
2018,02,19,05,11,-4.90
2018,02,19,05,12,-4.90
2018,02,19,05,13,-5.00
2018,02,19,05,14,-5.00
2018,02,19,05,15,-5.00
2018,02,19,05,16,-5.00
2018,02,19,05,17,-5.00
2018,02,19,05,18,-5.00
2018,02,19,05,19,-4.90
2018,02,19,05,20,-4.90
2018,02,19,05,21,-5.00
2018,02,19,05,22,-5.00
2018,02,19,05,23,-5.10
2018,02,19,05,24,-5.10
2018,02,19,05,25,-5.10
2018,02,19,05,26,-5.10
2018,02,19,05,27,-5.10
2018,02,19,05,28,-5.10
2018,02,19,05,29,-5.10
2018,02,19,05,30,-5.10
2018,02,19,05,31,-5.00
2018,02,19,05,32,-5.00
2018,02,19,05,33,-5.00
2018,02,19,05,34,-5.00
2018,02,19,05,35,-5.00
2018,02,19,05,36,-5.00
2018,02,19,05,37,-4.90
2018,02,19,05,38,-4.90
2018,02,19,05,39,-4.80
2018,02,19,05,40,-4.80
2018,02,19,05,41,-4.80
2018,02,19,05,42,-4.80
2018,02,19,05,43,-4.80
2018,02,19,05,44,-4.80
2018,02,19,05,45,-4.80
2018,02,19,05,46,-4.80
2018,02,19,05,47,-4.80
2018,02,19,05,48,-4.80
2018,02,19,05,49,-4.80
2018,02,19,05,50,-4.90
2018,02,19,05,51,-5.00
2018,02,19,05,52,-5.10
2018,02,19,05,53,-5.20
2018,02,19,05,54,-5.30
2018,02,19,05,55,-5.30
2018,02,19,05,56,-5.30
2018,02,19,05,57,-5.30
2018,02,19,05,58,-5.30
2018,02,19,05,59,-5.20
2018,02,19,06,00,-5.20
2018,02,19,06,01,-5.30
2018,02,19,06,02,-5.30
2018,02,19,06,03,-5.30
2018,02,19,06,04,-5.40
2018,02,19,06,05,-5.50
2018,02,19,06,06,-5.60
2018,02,19,06,07,-5.60
2018,02,19,06,08,-5.70
2018,02,19,06,09,-5.70
2018,02,19,06,10,-5.70
2018,02,19,06,11,-5.60
2018,02,19,06,12,-5.70
2018,02,19,06,13,-5.70
2018,02,19,06,14,-5.70
2018,02,19,06,15,-5.80
2018,02,19,06,16,-5.80
2018,02,19,06,17,-5.80
2018,02,19,06,18,-5.90
2018,02,19,06,19,-5.90
2018,02,19,06,20,-6.00
2018,02,19,06,21,-6.00
2018,02,19,06,22,-6.00
2018,02,19,06,23,-6.10
2018,02,19,06,24,-6.10
2018,02,19,06,25,-6.20
2018,02,19,06,26,-6.20
2018,02,19,06,27,-6.20
2018,02,19,06,28,-6.20
2018,02,19,06,29,-6.20
2018,02,19,06,30,-6.30
2018,02,19,06,31,-6.30
2018,02,19,06,32,-6.30
2018,02,19,06,33,-6.30
2018,02,19,06,34,-6.30
2018,02,19,06,35,-6.30
2018,02,19,06,36,-6.30
2018,02,19,06,37,-6.30
2018,02,19,06,38,-6.40
2018,02,19,06,39,-6.40
2018,02,19,06,40,-6.40
2018,02,19,06,41,-6.40
2018,02,19,06,42,-6.40
2018,02,19,06,43,-6.40
2018,02,19,06,44,-6.50
2018,02,19,06,45,-6.50
2018,02,19,06,46,-6.50
2018,02,19,06,47,-6.50
2018,02,19,06,48,-6.50
2018,02,19,06,49,-6.50
2018,02,19,06,50,-6.50
2018,02,19,06,51,-6.60
2018,02,19,06,52,-6.60
2018,02,19,06,53,-6.60
2018,02,19,06,54,-6.60
2018,02,19,06,55,-6.70
2018,02,19,06,56,-6.70
2018,02,19,06,57,-6.70
2018,02,19,06,58,-6.70
2018,02,19,06,59,-6.70
2018,02,19,07,00,-6.70
2018,02,19,07,01,-6.70
2018,02,19,07,02,-6.80
2018,02,19,07,03,-6.80
2018,02,19,07,04,-6.80
2018,02,19,07,05,-6.90
2018,02,19,07,06,-6.90
2018,02,19,07,07,-6.90
2018,02,19,07,08,-6.90
2018,02,19,07,09,-6.90
2018,02,19,07,10,-6.90
2018,02,19,07,11,-6.90
2018,02,19,07,12,-6.90
2018,02,19,07,13,-7.00
2018,02,19,07,14,-7.00
2018,02,19,07,15,-7.00
2018,02,19,07,16,-7.00
2018,02,19,07,17,-7.00
2018,02,19,07,18,-7.00
2018,02,19,07,19,-7.10
2018,02,19,07,20,-7.10
2018,02,19,07,21,-7.10
2018,02,19,07,22,-7.10
2018,02,19,07,23,-7.10
2018,02,19,07,24,-7.10
2018,02,19,07,25,-7.10
2018,02,19,07,26,-7.10
2018,02,19,07,27,-7.20
2018,02,19,07,28,-7.20
2018,02,19,07,29,-7.20
2018,02,19,07,30,-7.20
2018,02,19,07,31,-7.20
2018,02,19,07,32,-7.20
2018,02,19,07,33,-7.20
2018,02,19,07,34,-7.20
2018,02,19,07,35,-7.20
2018,02,19,07,36,-7.30
2018,02,19,07,37,-7.30
2018,02,19,07,38,-7.30
2018,02,19,07,39,-7.30
2018,02,19,07,40,-7.30
2018,02,19,07,41,-7.40
2018,02,19,07,42,-7.30
2018,02,19,07,43,-7.30
2018,02,19,07,44,-7.30
2018,02,19,07,45,-7.30
2018,02,19,07,46,-7.20
2018,02,19,07,47,-7.20
2018,02,19,07,48,-7.10
2018,02,19,07,49,-7.10
2018,02,19,07,50,-7.00
2018,02,19,07,51,-7.00
2018,02,19,07,52,-7.00
2018,02,19,07,53,-7.00
2018,02,19,07,54,-7.00
2018,02,19,07,55,-6.90
2018,02,19,07,56,-6.90
2018,02,19,07,57,-6.90
2018,02,19,07,58,-6.90
2018,02,19,07,59,-6.90
2018,02,19,08,00,-6.90
2018,02,19,08,01,-6.80
2018,02,19,08,02,-6.80
2018,02,19,08,03,-6.80
2018,02,19,08,04,-6.70
2018,02,19,08,05,-6.50
2018,02,19,08,06,-6.40
2018,02,19,08,07,-6.40
2018,02,19,08,08,-6.30
2018,02,19,08,09,-6.30
2018,02,19,08,10,-6.20
2018,02,19,08,11,-6.20
2018,02,19,08,12,-6.20
2018,02,19,08,13,-6.20
2018,02,19,08,14,-6.10
2018,02,19,08,15,-6.00
2018,02,19,08,16,-5.90
2018,02,19,08,17,-5.90
2018,02,19,08,18,-5.80
2018,02,19,08,19,-5.70
2018,02,19,08,20,-5.60
2018,02,19,08,21,-5.60
2018,02,19,08,22,-5.50
2018,02,19,08,23,-5.50
2018,02,19,08,24,-5.40
2018,02,19,08,25,-5.40
2018,02,19,08,26,-5.30
2018,02,19,08,27,-5.30
2018,02,19,08,28,-5.20
2018,02,19,08,29,-5.20
2018,02,19,08,30,-5.00
2018,02,19,08,31,-5.00
2018,02,19,08,32,-4.90
2018,02,19,08,33,-4.80
2018,02,19,08,34,-4.80
2018,02,19,08,35,-4.80
2018,02,19,08,36,-4.80
2018,02,19,08,37,-4.80
2018,02,19,08,38,-4.70
2018,02,19,08,39,-4.70
2018,02,19,08,40,-4.60
2018,02,19,08,41,-4.60
2018,02,19,08,42,-4.60
2018,02,19,08,43,-4.50
2018,02,19,08,44,-4.50
2018,02,19,08,45,-4.40
2018,02,19,08,46,-4.40
2018,02,19,08,47,-4.30
2018,02,19,08,48,-4.20
2018,02,19,08,49,-4.10
2018,02,19,08,50,-4.10
2018,02,19,08,51,-4.10
2018,02,19,08,52,-4.10
2018,02,19,08,53,-4.10
2018,02,19,08,54,-4.10
2018,02,19,08,55,-4.00
2018,02,19,08,56,-4.00
2018,02,19,08,57,-3.90
2018,02,19,08,58,-3.90
2018,02,19,08,59,-3.90
2018,02,19,09,00,-3.80
2018,02,19,09,01,-3.70
2018,02,19,09,02,-3.60
2018,02,19,09,03,-3.50
2018,02,19,09,04,-3.40
2018,02,19,09,05,-3.30
2018,02,19,09,06,-3.30
2018,02,19,09,07,-3.20
2018,02,19,09,08,-3.20
2018,02,19,09,09,-3.10
2018,02,19,09,10,-3.00
2018,02,19,09,11,-2.90
2018,02,19,09,12,-2.90
2018,02,19,09,13,-2.80
2018,02,19,09,14,-2.80
2018,02,19,09,15,-2.80
2018,02,19,09,16,-2.80
2018,02,19,09,17,-2.80
2018,02,19,09,18,-2.80
2018,02,19,09,19,-2.80
2018,02,19,09,20,-2.80
2018,02,19,09,21,-2.70
2018,02,19,09,22,-2.60
2018,02,19,09,23,-2.50
2018,02,19,09,24,-2.40
2018,02,19,09,25,-2.30
2018,02,19,09,26,-2.30
2018,02,19,09,27,-2.20
2018,02,19,09,28,-2.20
2018,02,19,09,29,-2.20
2018,02,19,09,30,-2.10
2018,02,19,09,31,-2.10
2018,02,19,09,32,-2.00
2018,02,19,09,33,-2.00
2018,02,19,09,34,-1.90
2018,02,19,09,35,-1.90
2018,02,19,09,36,-1.80
2018,02,19,09,37,-1.80
2018,02,19,09,38,-1.80
2018,02,19,09,39,-1.80
2018,02,19,09,40,-1.80
2018,02,19,09,41,-1.80
2018,02,19,09,42,-1.80
2018,02,19,09,43,-1.80
2018,02,19,09,44,-1.80
2018,02,19,09,45,-1.80
2018,02,19,09,46,-1.80
2018,02,19,09,47,-1.80
2018,02,19,09,48,-1.70
2018,02,19,09,49,-1.70
2018,02,19,09,50,-1.60
2018,02,19,09,51,-1.50
2018,02,19,09,52,-1.40
2018,02,19,09,53,-1.40
2018,02,19,09,54,-1.30
2018,02,19,09,55,-1.20
2018,02,19,09,56,-1.10
2018,02,19,09,57,-1.00
2018,02,19,09,58,-1.00
2018,02,19,09,59,-0.90
2018,02,19,10,00,-0.90
2018,02,19,10,01,-0.80
2018,02,19,10,02,-0.80
2018,02,19,10,03,-0.80
2018,02,19,10,04,-0.80
2018,02,19,10,05,-0.80
2018,02,19,10,06,-0.80
2018,02,19,10,07,-0.90
2018,02,19,10,08,-0.90
2018,02,19,10,09,-0.90
2018,02,19,10,10,-0.90
2018,02,19,10,11,-0.90
2018,02,19,10,12,-0.90
2018,02,19,10,13,-0.80
2018,02,19,10,14,-0.70
2018,02,19,10,15,-0.60
2018,02,19,10,16,-0.50
2018,02,19,10,17,-0.40
2018,02,19,10,18,-0.30
2018,02,19,10,19,-0.20
2018,02,19,10,20,-0.20
2018,02,19,10,21,-0.20
2018,02,19,10,22,-0.30
2018,02,19,10,23,-0.30
2018,02,19,10,24,-0.40
2018,02,19,10,25,-0.40
2018,02,19,10,26,-0.50
2018,02,19,10,27,-0.50
2018,02,19,10,28,-0.60
2018,02,19,10,29,-0.60
2018,02,19,10,30,-0.60
2018,02,19,10,31,-0.60
2018,02,19,10,32,-0.60
2018,02,19,10,33,-0.60
2018,02,19,10,34,-0.50
2018,02,19,10,35,-0.40
2018,02,19,10,36,-0.40
2018,02,19,10,37,-0.30
2018,02,19,10,38,-0.30
2018,02,19,10,39,-0.20
2018,02,19,10,40,-0.20
2018,02,19,10,41,-0.10
2018,02,19,10,42,-0.10
2018,02,19,10,43,-0.20
2018,02,19,10,44,-0.20
2018,02,19,10,45,-0.20
2018,02,19,10,46,-0.20
2018,02,19,10,47,-0.30
2018,02,19,10,48,-0.30
2018,02,19,10,49,-0.20
2018,02,19,10,50,-0.20
2018,02,19,10,51,-0.20
2018,02,19,10,52,-0.10
2018,02,19,10,53,0.00
2018,02,19,10,54,0.10
2018,02,19,10,55,0.10
2018,02,19,10,56,0.20
2018,02,19,10,57,0.30
2018,02,19,10,58,0.40
2018,02,19,10,59,0.50
2018,02,19,11,00,0.60
2018,02,19,11,01,0.70
2018,02,19,11,02,0.80
2018,02,19,11,03,0.80
2018,02,19,11,04,0.80
2018,02,19,11,05,0.80
2018,02,19,11,06,0.80
2018,02,19,11,07,0.80
2018,02,19,11,08,0.70
2018,02,19,11,09,0.60
2018,02,19,11,10,0.50
2018,02,19,11,11,0.40
2018,02,19,11,12,0.30
2018,02,19,11,13,0.30
2018,02,19,11,14,0.30
2018,02,19,11,15,0.20
2018,02,19,11,16,0.20
2018,02,19,11,17,0.20
2018,02,19,11,18,0.30
2018,02,19,11,19,0.30
2018,02,19,11,20,0.30
2018,02,19,11,21,0.30
2018,02,19,11,22,0.30
2018,02,19,11,23,0.30
2018,02,19,11,24,0.30
2018,02,19,11,25,0.30
2018,02,19,11,26,0.40
2018,02,19,11,27,0.40
2018,02,19,11,28,0.50
2018,02,19,11,29,0.50
2018,02,19,11,30,0.60
2018,02,19,11,31,0.60
2018,02,19,11,32,0.60
2018,02,19,11,33,0.70
2018,02,19,11,34,0.80
2018,02,19,11,35,0.90
2018,02,19,11,36,0.90
2018,02,19,11,37,0.80
2018,02,19,11,38,0.80
2018,02,19,11,39,0.80
2018,02,19,11,40,0.80
2018,02,19,11,41,0.70
2018,02,19,11,42,0.70
2018,02,19,11,43,0.60
2018,02,19,11,44,0.60
2018,02,19,11,45,0.50
2018,02,19,11,46,0.40
2018,02,19,11,47,0.40
2018,02,19,11,48,0.40
2018,02,19,11,49,0.30
2018,02,19,11,50,0.30
2018,02,19,11,51,0.30
2018,02,19,11,52,0.40
2018,02,19,11,53,0.40
2018,02,19,11,54,0.40
2018,02,19,11,55,0.40
2018,02,19,11,56,0.40
2018,02,19,11,57,0.40
2018,02,19,11,58,0.40
2018,02,19,11,59,0.40
2018,02,19,12,00,0.40
2018,02,19,12,01,0.40
2018,02,19,12,02,0.40
2018,02,19,12,03,0.50
2018,02,19,12,04,0.50
2018,02,19,12,05,0.50
2018,02,19,12,06,0.60
2018,02,19,12,07,0.60
2018,02,19,12,08,0.60
2018,02,19,12,09,0.60
2018,02,19,12,10,0.70
2018,02,19,12,11,0.70
2018,02,19,12,12,0.70
2018,02,19,12,13,0.70
2018,02,19,12,14,0.70
2018,02,19,12,15,0.70
2018,02,19,12,16,0.60
2018,02,19,12,17,0.60
2018,02,19,12,18,0.50
2018,02,19,12,19,0.50
2018,02,19,12,20,0.50
2018,02,19,12,21,0.60
2018,02,19,12,22,0.60
2018,02,19,12,23,0.70
2018,02,19,12,24,0.80
2018,02,19,12,25,0.80
2018,02,19,12,26,0.80
2018,02,19,12,27,0.80
2018,02,19,12,28,0.80
2018,02,19,12,29,0.90
2018,02,19,12,30,0.90
2018,02,19,12,31,0.90
2018,02,19,12,32,1.00
2018,02,19,12,33,1.00
2018,02,19,12,34,1.00
2018,02,19,12,35,1.10
2018,02,19,12,36,1.10
2018,02,19,12,37,1.10
2018,02,19,12,38,1.10
2018,02,19,12,39,1.20
2018,02,19,12,40,1.20
2018,02,19,12,41,1.10
2018,02,19,12,42,1.10
2018,02,19,12,43,1.10
2018,02,19,12,44,1.10
2018,02,19,12,45,1.10
2018,02,19,12,46,1.20
2018,02,19,12,47,1.20
2018,02,19,12,48,1.20
2018,02,19,12,49,1.20
2018,02,19,12,50,1.20
2018,02,19,12,51,1.20
2018,02,19,12,52,1.20
2018,02,19,12,53,1.20
2018,02,19,12,54,1.10
2018,02,19,12,55,1.10
2018,02,19,12,56,1.00
2018,02,19,12,57,1.00
2018,02,19,12,58,0.90
2018,02,19,12,59,1.00
2018,02,19,13,00,1.00
2018,02,19,13,01,1.00
2018,02,19,13,02,1.10
2018,02,19,13,03,1.10
2018,02,19,13,04,1.00
2018,02,19,13,05,1.00
2018,02,19,13,06,1.00
2018,02,19,13,07,0.90
2018,02,19,13,08,0.90
2018,02,19,13,09,0.80
2018,02,19,13,10,0.80
2018,02,19,13,11,0.80
2018,02,19,13,12,0.80
2018,02,19,13,13,0.90
2018,02,19,13,14,1.00
2018,02,19,13,15,1.10
2018,02,19,13,16,1.20
2018,02,19,13,17,1.30
2018,02,19,13,18,1.30
2018,02,19,13,19,1.40
2018,02,19,13,20,1.40
2018,02,19,13,21,1.50
2018,02,19,13,22,1.50
2018,02,19,13,23,1.70
2018,02,19,13,24,1.70
2018,02,19,13,25,1.80
2018,02,19,13,26,1.90
2018,02,19,13,27,1.90
2018,02,19,13,28,1.90
2018,02,19,13,29,1.90
2018,02,19,13,30,1.90
2018,02,19,13,31,1.80
2018,02,19,13,32,1.80
2018,02,19,13,33,1.70
2018,02,19,13,34,1.60
2018,02,19,13,35,1.40
2018,02,19,13,36,1.30
2018,02,19,13,37,1.30
2018,02,19,13,38,1.20
2018,02,19,13,39,1.20
2018,02,19,13,40,1.20
2018,02,19,13,41,1.20
2018,02,19,13,42,1.30
2018,02,19,13,43,1.30
2018,02,19,13,44,1.40
2018,02,19,13,45,1.40
2018,02,19,13,46,1.30
2018,02,19,13,47,1.30
2018,02,19,13,48,1.30
2018,02,19,13,49,1.30
2018,02,19,13,50,1.30
2018,02,19,13,51,1.30
2018,02,19,13,52,1.30
2018,02,19,13,53,1.30
2018,02,19,13,54,1.30
2018,02,19,13,55,1.30
2018,02,19,13,56,1.30
2018,02,19,13,57,1.30
2018,02,19,13,58,1.30
2018,02,19,13,59,1.30
2018,02,19,14,00,1.30
2018,02,19,14,01,1.30
2018,02,19,14,02,1.30
2018,02,19,14,03,1.30
2018,02,19,14,04,1.30
2018,02,19,14,05,1.30
2018,02,19,14,06,1.30
2018,02,19,14,07,1.30
2018,02,19,14,08,1.30
2018,02,19,14,09,1.30
2018,02,19,14,10,1.30
2018,02,19,14,11,1.40
2018,02,19,14,12,1.30
2018,02,19,14,13,1.30
2018,02,19,14,14,1.20
2018,02,19,14,15,1.20
2018,02,19,14,16,1.30
2018,02,19,14,17,1.30
2018,02,19,14,18,1.40
2018,02,19,14,19,1.30
2018,02,19,14,20,1.30
2018,02,19,14,21,1.30
2018,02,19,14,22,1.20
2018,02,19,14,23,1.20
2018,02,19,14,24,1.20
2018,02,19,14,25,1.20
2018,02,19,14,26,1.20
2018,02,19,14,27,1.20
2018,02,19,14,28,1.20
2018,02,19,14,29,1.20
2018,02,19,14,30,1.20
2018,02,19,14,31,1.20
2018,02,19,14,32,1.10
2018,02,19,14,33,1.10
2018,02,19,14,34,1.10
2018,02,19,14,35,1.00
2018,02,19,14,36,1.00
2018,02,19,14,37,1.00
2018,02,19,14,38,0.90
2018,02,19,14,39,0.90
2018,02,19,14,40,1.00
2018,02,19,14,41,1.00
2018,02,19,14,42,1.00
2018,02,19,14,43,1.00
2018,02,19,14,44,1.10
2018,02,19,14,45,1.10
2018,02,19,14,46,1.20
2018,02,19,14,47,1.20
2018,02,19,14,48,1.20
2018,02,19,14,49,1.20
2018,02,19,14,50,1.20
2018,02,19,14,51,1.20
2018,02,19,14,52,1.10
2018,02,19,14,53,1.10
2018,02,19,14,54,1.10
2018,02,19,14,55,1.00
2018,02,19,14,56,1.00
2018,02,19,14,57,0.90
2018,02,19,14,58,0.90
2018,02,19,14,59,0.90
2018,02,19,15,00,0.90
2018,02,19,15,01,0.90
2018,02,19,15,02,0.80
2018,02,19,15,03,0.80
2018,02,19,15,04,0.80
2018,02,19,15,05,0.80
2018,02,19,15,06,0.80
2018,02,19,15,07,0.80
2018,02,19,15,08,0.90
2018,02,19,15,09,0.90
2018,02,19,15,10,0.90
2018,02,19,15,11,0.90
2018,02,19,15,12,0.90
2018,02,19,15,13,0.80
2018,02,19,15,14,0.80
2018,02,19,15,15,0.80
2018,02,19,15,16,0.80
2018,02,19,15,17,0.70
2018,02,19,15,18,0.70
2018,02,19,15,19,0.70
2018,02,19,15,20,0.70
2018,02,19,15,21,0.70
2018,02,19,15,22,0.70
2018,02,19,15,23,0.70
2018,02,19,15,24,0.70
2018,02,19,15,25,0.70
2018,02,19,15,26,0.70
2018,02,19,15,27,0.70
2018,02,19,15,28,0.70
2018,02,19,15,29,0.70
2018,02,19,15,30,0.60
2018,02,19,15,31,0.60
2018,02,19,15,32,0.60
2018,02,19,15,33,0.60
2018,02,19,15,34,0.60
2018,02,19,15,35,0.60
2018,02,19,15,36,0.60
2018,02,19,15,37,0.60
2018,02,19,15,38,0.60
2018,02,19,15,39,0.60
2018,02,19,15,40,0.60
2018,02,19,15,41,0.60
2018,02,19,15,42,0.60
2018,02,19,15,43,0.60
2018,02,19,15,44,0.60
2018,02,19,15,45,0.60
2018,02,19,15,46,0.60
2018,02,19,15,47,0.60
2018,02,19,15,48,0.60
2018,02,19,15,49,0.70
2018,02,19,15,50,0.70
2018,02,19,15,51,0.70
2018,02,19,15,52,0.70
2018,02,19,15,53,0.70
2018,02,19,15,54,0.80
2018,02,19,15,55,0.80
2018,02,19,15,56,0.80
2018,02,19,15,57,0.70
2018,02,19,15,58,0.70
2018,02,19,15,59,0.70
2018,02,19,16,00,0.70
2018,02,19,16,01,0.70
2018,02,19,16,02,0.70
2018,02,19,16,03,0.60
2018,02,19,16,04,0.60
2018,02,19,16,05,0.60
2018,02,19,16,06,0.60
2018,02,19,16,07,0.60
2018,02,19,16,08,0.60
2018,02,19,16,09,0.60
2018,02,19,16,10,0.60
2018,02,19,16,11,0.60
2018,02,19,16,12,0.60
2018,02,19,16,13,0.60
2018,02,19,16,14,0.50
2018,02,19,16,15,0.50
2018,02,19,16,16,0.50
2018,02,19,16,17,0.50
2018,02,19,16,18,0.50
2018,02,19,16,19,0.60
2018,02,19,16,20,0.60
2018,02,19,16,21,0.50
2018,02,19,16,22,0.50
2018,02,19,16,23,0.50
2018,02,19,16,24,0.60
2018,02,19,16,25,0.60
2018,02,19,16,26,0.60
2018,02,19,16,27,0.60
2018,02,19,16,28,0.60
2018,02,19,16,29,0.60
2018,02,19,16,30,0.60
2018,02,19,16,31,0.60
2018,02,19,16,32,0.60
2018,02,19,16,33,0.60
2018,02,19,16,34,0.50
2018,02,19,16,35,0.50
2018,02,19,16,36,0.50
2018,02,19,16,37,0.50
2018,02,19,16,38,0.40
2018,02,19,16,39,0.40
2018,02,19,16,40,0.40
2018,02,19,16,41,0.30
2018,02,19,16,42,0.30
2018,02,19,16,43,0.30
2018,02,19,16,44,0.30
2018,02,19,16,45,0.20
2018,02,19,16,46,0.30
2018,02,19,16,47,0.30
2018,02,19,16,48,0.30
2018,02,19,16,49,0.30
2018,02,19,16,50,0.30
2018,02,19,16,51,0.30
2018,02,19,16,52,0.30
2018,02,19,16,53,0.30
2018,02,19,16,54,0.20
2018,02,19,16,55,0.20
2018,02,19,16,56,0.20
2018,02,19,16,57,0.20
2018,02,19,16,58,0.10
2018,02,19,16,59,0.10
2018,02,19,17,00,0.10
2018,02,19,17,01,0.00
2018,02,19,17,02,0.00
2018,02,19,17,03,-0.10
2018,02,19,17,04,-0.10
2018,02,19,17,05,-0.10
2018,02,19,17,06,-0.10
2018,02,19,17,07,-0.20
2018,02,19,17,08,-0.20
2018,02,19,17,09,-0.20
2018,02,19,17,10,-0.20
2018,02,19,17,11,-0.30
2018,02,19,17,12,-0.30
2018,02,19,17,13,-0.30
2018,02,19,17,14,-0.30
2018,02,19,17,15,-0.30
2018,02,19,17,16,-0.30
2018,02,19,17,17,-0.30
2018,02,19,17,18,-0.40
2018,02,19,17,19,-0.40
2018,02,19,17,20,-0.40
2018,02,19,17,21,-0.40
2018,02,19,17,22,-0.40
2018,02,19,17,23,-0.50
2018,02,19,17,24,-0.50
2018,02,19,17,25,-0.60
2018,02,19,17,26,-0.60
2018,02,19,17,27,-0.60
2018,02,19,17,28,-0.70
2018,02,19,17,29,-0.70
2018,02,19,17,30,-0.70
2018,02,19,17,31,-0.80
2018,02,19,17,32,-0.80
2018,02,19,17,33,-0.80
2018,02,19,17,34,-0.90
2018,02,19,17,35,-0.90
2018,02,19,17,36,-0.90
2018,02,19,17,37,-1.00
2018,02,19,17,38,-1.00